[[{"header":{"parameterUnit":"m.s-1","parameterCategory":2,"la1":30.2991,"la2":30.254,"lo1":-89.0895,"lo2":-89.0444,"dy":0.0017,"dx":0.0017,"nx":28,"ny":28,"refTime":"2025-03-11T09:00:00:Z","depth":"0","parameterNumber":2,"parameterNumberName":"U-component_of_CURRENTS"},"data":[0,0,0,0,0,0,0,0,0,0,0,0,0,0,0,0,0,0,0,0,0,0,0,0,0,0,0,0,0,0,0,0,0,0,0,0,0,0,0,0,0,0,0,0,0,0,0,0,0,0,0,0,0,0,0,0,0,0,0.1149,0.1149,0,0.1167,0.1167,0.1167,0.1173,0.1173,0.1173,0.1173,0.1205,0.1206,0.1207,0,0,0,0,0,0,0,0,0,0,0,0,0,0.1159,0.1158,0.1149,0.1149,0.1149,0.1167,0.1167,0.1168,0.1173,0.1173,0.1173,0.1173,0.1205,0.1206,0.1207,0,0,0,0,0,0,0,0,0,0,0,0,0,0.1164,0.1158,0.1149,0.1154,0.1154,0.1167,0.1167,0.1168,0.1173,0.1173,0.1173,0.1173,0.1204,0.1206,0.1207,0.1221,0,0,0.1212,0.1212,0,0,0,0,0,0,0,0,0.1163,0.1163,0.1153,0.1153,0.1154,0.1167,0.1183,0.1186,0.1173,0.1167,0.1173,0.1172,0.1193,0.1196,0.12,0.1222,0.1224,0.1212,0.1213,0.1213,0.1214,0,0,0,0,0,0,0,0.1163,0.1163,0.1157,0.1153,0.1154,0.1168,0.1169,0.1183,0.1182,0.1167,0.1167,0.1169,0.1194,0.1199,0.1201,0.1224,0.1212,0.1213,0.1214,0.1215,0.1278,0.1279,0,0,0,0,0,0,0.1158,0.1162,0.1156,0.1157,0.1158,0.1168,0.1169,0.1164,0.1181,0.1183,0.1169,0.1169,0.1196,0.1199,0.1202,0.1264,0.1213,0.1215,0.1216,0.1277,0.1278,0.1279,0,0,0,0,0,0,0.1158,0.1157,0.1155,0.116,0.1161,0.1168,0.1163,0.1164,0.1171,0.1182,0.1185,0.1175,0.1196,0.12,0.1217,0.1264,0.1215,0.1217,0.1276,0.1278,0.1279,0.1359,0,0,0,0,0,0,0.1158,0.1156,0.116,0.1159,0.116,0.1175,0.1163,0.1164,0.1172,0.1172,0.1188,0.1191,0.1196,0.1215,0.1219,0.1265,0.1218,0.1275,0.1277,0.1278,0.1355,0.1363,0.1369,0,0,0,0,0,0.1158,0.1167,0.116,0.116,0.1162,0.1176,0.1178,0.1183,0.1172,0.1186,0.1187,0.119,0.1227,0.1216,0.1221,0.1269,0.1275,0.1277,0.1278,0.1352,0.1361,0.1369,0,0,0,0,0,0,0.1182,0.1168,0.1161,0.1167,0.1174,0.1177,0.119,0.1185,0.1196,0.1194,0.1197,0.12,0.123,0.123,0.1218,0.1288,0.1254,0.1256,0.1308,0.1317,0.1324,0.1424,0.1219,0,0,0,0,0,0.1186,0.1186,0.1178,0.1189,0.1188,0.1187,0.1194,0.1194,0.1199,0.1203,0.1209,0.1219,0.1241,0.1262,0.1269,0.1311,0.1406,0.1343,0.135,0.1356,0.1438,0.1654,0.1691,0.1285,0.1285,0.1285,0,0,0.1203,0.1193,0.1197,0.1194,0.1196,0.1217,0.1191,0.1204,0.123,0.1206,0.1239,0.1236,0.1251,0.1295,0.1311,0.1305,0.1498,0.1358,0.1364,0.1445,0.1661,0.1702,0.1738,0.1286,0.1286,0.1286,0,0,0.1252,0.1222,0.1248,0.1247,0.1249,0.1243,0.1246,0.1245,0.1253,0.127,0.1269,0.132,0.1309,0.1378,0.1399,0.1455,0.1516,0.1416,0.1558,0.1764,0.1802,0.1837,0.1927,0.197,0.1437,0.1437,0.1437,0,0.1275,0.1303,0.1263,0.1287,0.1306,0.1256,0.1304,0.1295,0.1303,0.1363,0.1286,0.1396,0.1377,0.1529,0.1528,0.1485,0.157,0.1523,0.1784,0.1821,0.1856,0.194,0.1987,0.1441,0.1441,0.144,0.144,0,0.1348,0.1369,0.1382,0.1393,0.1403,0.1428,0.1411,0.1433,0.1414,0.1445,0.1555,0.1546,0.1653,0.1617,0.1579,0.181,0.1773,0.1758,0.1781,0.1903,0.198,0.2027,0.1447,0.1445,0.1444,0.1443,0,0,0.1415,0.1433,0.1444,0.1476,0.1465,0.1486,0.153,0.1608,0.1696,0.1688,0.1851,0.1864,0.1903,0.1933,0.1914,0.2061,0.2301,0.2014,0.2023,0.2135,0.2701,0.2584,0.2623,0.2345,0.2356,0.2364,0.2627,0,0.1498,0.1583,0.1564,0.1643,0.1687,0.1665,0.1724,0.1784,0.1818,0.1943,0.2004,0.2108,0.2006,0.2064,0.221,0.228,0.2443,0.2228,0.2541,0.255,0.2463,0.2683,0.2609,0.2834,0.2673,0.2681,0.2687,0,0.1594,0.1638,0.1739,0.1805,0.1824,0.1857,0.1986,0.2024,0.2177,0.2224,0.238,0.2406,0.2605,0.2483,0.2784,0.2651,0.2718,0.2757,0.2768,0.2696,0.2528,0.27,0.2926,0.2782,0.276,0.2754,0.2749,0,0.17,0.1767,0.1857,0.187,0.1924,0.199,0.2025,0.2149,0.2222,0.2431,0.2528,0.2757,0.2853,0.3036,0.306,0.2974,0.3368,0.3262,0.3234,0.322,0.3246,0.3218,0.3421,0.3569,0.3568,0.3567,0.3567,0,0.1813,0.1881,0.1911,0.1955,0.2075,0.2082,0.2231,0.2305,0.2451,0.2571,0.2687,0.2826,0.3008,0.3189,0.3231,0.3378,0.3532,0.3353,0.3347,0.3249,0.322,0.316,0.3092,0.3577,0.3575,0.3573,0.3571,0,0.1919,0.1943,0.2035,0.2104,0.2123,0.2209,0.2295,0.2391,0.2523,0.2689,0.2763,0.2965,0.3176,0.3316,0.3587,0.3571,0.3639,0.3739,0.354,0.3506,0.3282,0.322,0.3385,0.3307,0.3791,0.3791,0.379,0,0.1978,0.2037,0.2117,0.2155,0.218,0.2277,0.2326,0.2432,0.2503,0.2735,0.2807,0.307,0.3197,0.3529,0.3622,0.378,0.3653,0.3775,0.3617,0.3356,0.3286,0.3107,0.3017,0.3647,0.3645,0.3644,0.3643,0,0.2069,0.2094,0.2158,0.2233,0.2284,0.2338,0.2402,0.2463,0.2568,0.2697,0.2847,0.2981,0.3266,0.3403,0.3605,0.3677,0.3591,0.3748,0.3626,0.3356,0.3051,0.2938,0.3277,0.3633,0.3634,0.3635,0.3635,0.3635,0.2106,0.2168,0.2225,0.2295,0.2337,0.2349,0.2375,0.2415,0.2504,0.2615,0.2784,0.2914,0.3173,0.3428,0.3506,0.3526,0.3467,0.3437,0.3429,0.3302,0.312,0.3362,0.3596,0.3597,0.3598,0.3598,0.3599,0,0.2126,0.2182,0.2256,0.2317,0.2326,0.2351,0.2368,0.2354,0.2378,0.2499,0.2609,0.2816,0.2991,0.3184,0.3325,0.3238,0.3125,0.3155,0.2942,0.2904,0.3291,0.3168,0.3143,0.3143,0.3143,0.3144,0.3144,0.3144,0.2135,0.2204,0.2243,0.2268,0.2281,0.2248,0.223,0.2214,0.2253,0.2297,0.2369,0.2511,0.2783,0.304,0.3047,0.2996,0.2778,0.2676,0.2625,0.2907,0.2931,0.2953,0.2822,0.2725,0.2725,0.2139,0.2134,0.2131]},{"header":{"parameterUnit":"m.s-1","parameterCategory":2,"la1":30.2991,"la2":30.254,"lo1":-89.0895,"lo2":-89.0444,"dy":0.0017,"dx":0.0017,"nx":28,"ny":28,"refTime":"2025-03-11T09:00:00:Z","depth":"0","parameterNumber":3,"parameterNumberName":"V-component_of_CURRENTS"},"data":[0,0,0,0,0,0,0,0,0,0,0,0,0,0,0,0,0,0,0,0,0,0,0,0,0,0,0,0,0,0,0,0,0,0,0,0,0,0,0,0,0,0,0,0,0,0,0,0,0,0,0,0,0,0,0,0,0,0,-0.006,-0.006,0,-0.0079,-0.0079,-0.0079,-0.007,-0.007,-0.007,-0.007,-0.0071,-0.0071,-0.0071,0,0,0,0,0,0,0,0,0,0,0,0,0,0.0019,0.0017,-0.006,-0.006,-0.006,-0.0079,-0.0079,-0.0079,-0.007,-0.007,-0.007,-0.0069,-0.0071,-0.0071,-0.0071,0,0,0,0,0,0,0,0,0,0,0,0,0,-0.0008,0.0017,-0.006,-0.006,-0.006,-0.0079,-0.0079,-0.0079,-0.0071,-0.007,-0.007,-0.0069,-0.007,-0.0071,-0.0071,-0.0083,0,0,-0.0073,-0.0073,0,0,0,0,0,0,0,0,-0.0006,-0.001,-0.0059,-0.006,-0.006,-0.0073,-0.0052,-0.008,-0.0071,-0.0065,-0.007,-0.0069,-0.0071,-0.0072,-0.0074,-0.0083,-0.0083,-0.0073,-0.0073,-0.0073,-0.0073,0,0,0,0,0,0,0,-0.0004,-0.0009,-0.0065,-0.006,-0.006,-0.0047,-0.0051,-0.0057,-0.0069,-0.0065,-0.0065,-0.007,-0.0071,-0.0074,-0.0074,-0.0083,-0.0073,-0.0073,-0.0073,-0.0074,-0.0078,-0.0078,0,0,0,0,0,0,-0.0008,-0.0008,-0.0065,-0.0066,-0.0034,-0.0049,-0.0053,-0.0068,-0.0069,-0.0069,-0.0071,-0.007,-0.0073,-0.0073,-0.0074,-0.004,-0.0073,-0.0074,-0.0074,-0.0078,-0.0078,-0.0078,0,0,0,0,0,0,-0.0007,-0.0014,-0.0064,-0.0038,-0.0044,-0.0052,-0.0068,-0.0069,-0.0071,-0.0074,-0.0073,-0.0072,-0.0073,-0.0073,-0.0084,-0.0042,-0.0074,-0.0074,-0.0078,-0.0078,-0.0078,-0.0003,0,0,0,0,0,0,-0.0005,-0.0013,-0.0023,-0.0039,-0.0045,-0.0072,-0.0069,-0.007,-0.0076,-0.0075,-0.0075,-0.0075,-0.0072,-0.0083,-0.0084,-0.0043,-0.0075,-0.0078,-0.0078,-0.0078,-0.0005,0.0,0.0005,0,0,0,0,0,-0.0002,-0.0015,-0.0024,-0.003,-0.006,-0.0073,-0.0074,-0.0076,-0.0076,-0.0077,-0.0082,-0.0075,-0.0081,-0.0084,-0.0085,-0.0043,-0.0079,-0.0078,-0.0078,-0.0008,-0.0001,0.0005,0,0,0,0,0,0,0.0021,-0.0016,-0.0026,-0.0048,-0.0059,-0.0072,-0.0075,-0.0079,-0.0084,-0.0082,-0.0084,-0.0084,-0.0076,-0.0084,-0.0087,-0.0047,-0.0074,-0.0074,-0.002,-0.0014,-0.0009,0.0097,-0.0075,0,0,0,0,0,0.0017,-0.0005,-0.003,-0.0045,-0.0054,-0.0066,-0.0071,-0.0074,-0.0082,-0.0084,-0.0087,-0.0086,-0.0077,-0.0066,-0.0073,-0.0056,-0.0021,-0.0029,-0.0024,-0.0019,0.0064,0.015,0.0172,-0.0076,-0.0076,-0.0076,0,0,0.0025,-0.0001,-0.001,-0.0042,-0.0052,-0.0051,-0.0067,-0.0076,-0.0048,-0.0084,-0.0059,-0.008,-0.0076,-0.0053,-0.0047,-0.0049,0.0048,-0.0019,-0.0014,0.0068,0.0153,0.0178,0.0201,-0.0076,-0.0076,-0.0076,0,0,0.0042,0.0002,-0.0,-0.0018,-0.0039,-0.0044,-0.0048,-0.0064,-0.0043,-0.0047,-0.0045,-0.0021,-0.0053,0.0007,0.0023,0.0054,0.006,0.0017,0.0152,0.0232,0.0255,0.0277,0.0272,0.0293,0.0036,0.0036,0.0036,0,0.0062,0.0052,0.0001,-0.0005,0.0007,-0.0039,-0.001,-0.0011,-0.0022,0.0048,-0.0035,0.0034,0.0004,0.0137,0.0133,0.008,0.0087,0.0129,0.0246,0.0268,0.029,0.028,0.0302,0.004,0.004,0.0039,0.0039,0,0.0086,0.0076,0.0072,0.0056,0.0055,0.0065,0.0059,0.0086,0.008,0.0112,0.0206,0.0169,0.025,0.0208,0.0171,0.0322,0.0258,0.023,0.0246,0.0321,0.0302,0.0324,0.0045,0.0044,0.0043,0.0042,0,0,0.0174,0.0109,0.0117,0.0146,0.01,0.0129,0.017,0.0261,0.0381,0.0332,0.0503,0.0476,0.0495,0.0517,0.0486,0.0536,0.0616,0.0447,0.0449,0.047,0.0735,0.0652,0.0666,0.0601,0.0607,0.0612,0.0634,0,0.0238,0.0258,0.0211,0.0274,0.03,0.029,0.0364,0.0435,0.0483,0.0617,0.0641,0.0739,0.0601,0.0651,0.0685,0.0658,0.0691,0.061,0.064,0.0641,0.0584,0.0697,0.0636,0.0651,0.0655,0.0659,0.0661,0,0.0318,0.0323,0.0378,0.045,0.0472,0.0501,0.0686,0.0743,0.0898,0.0953,0.1058,0.1058,0.1158,0.0998,0.1039,0.0985,0.0889,0.0826,0.0825,0.077,0.0605,0.0591,0.0691,0.0461,0.0695,0.0692,0.069,0,0.046,0.0479,0.0545,0.0546,0.0586,0.0669,0.0726,0.0868,0.0996,0.1186,0.1292,0.139,0.1446,0.1389,0.1226,0.115,0.1231,0.1112,0.0948,0.0935,0.0914,0.0891,0.0843,0.1167,0.1167,0.1167,0.1167,0,0.0574,0.0645,0.0617,0.0648,0.0802,0.0799,0.1005,0.1098,0.1272,0.1455,0.1479,0.1627,0.1546,0.1551,0.1371,0.1245,0.1351,0.1038,0.0985,0.092,0.0899,0.0721,0.0617,0.1167,0.1167,0.1167,0.1167,0,0.0728,0.0689,0.0778,0.0825,0.085,0.0971,0.1113,0.128,0.1418,0.1654,0.1721,0.1846,0.1848,0.1722,0.1639,0.1438,0.1198,0.123,0.1116,0.1051,0.0654,0.0557,0.0573,0.0492,0.1077,0.1075,0.1074,0,0.0809,0.0853,0.0897,0.0942,0.0956,0.1097,0.1201,0.1343,0.1497,0.1771,0.1895,0.1996,0.2065,0.1916,0.1615,0.1358,0.1176,0.1119,0.0986,0.0695,0.0548,0.049,0.0417,0.0934,0.0932,0.093,0.0929,0,0.0978,0.0977,0.103,0.1091,0.1175,0.1308,0.1447,0.1576,0.1764,0.1951,0.2177,0.2262,0.2117,0.1876,0.1537,0.1329,0.097,0.1072,0.0852,0.0542,0.041,0.0282,0.078,0.0914,0.0916,0.0917,0.0918,0.0918,0.1107,0.1166,0.1188,0.1267,0.1362,0.1495,0.1623,0.1757,0.1985,0.2229,0.2322,0.2426,0.2068,0.1601,0.1349,0.0772,0.0806,0.0541,0.0472,0.0458,0.034,0.0771,0.0793,0.0794,0.0794,0.0795,0.0796,0,0.1214,0.1256,0.1352,0.1442,0.1564,0.1579,0.1776,0.1904,0.2108,0.2267,0.2434,0.2285,0.1816,0.1359,0.061,0.0224,0.0122,0.0023,-0.0076,-0.0104,0.0343,0.0289,0.0108,0.0108,0.0109,0.0109,0.0109,0.0109,0.1267,0.1348,0.1376,0.1576,0.1654,0.1833,0.1932,0.2098,0.2222,0.2373,0.2378,0.2399,0.1992,0.0717,-0.0118,-0.0272,-0.0522,-0.0584,-0.0668,-0.0425,-0.0383,-0.0343,-0.042,-0.0746,-0.0747,-0.1103,-0.1107,-0.111]}],[{"header":{"parameterUnit":"m.s-1","parameterCategory":2,"la1":30.2991,"la2":30.254,"lo1":-89.0895,"lo2":-89.0444,"dy":0.0017,"dx":0.0017,"nx":28,"ny":28,"refTime":"2025-03-11T09:00:00:Z","depth":"2","parameterNumber":2,"parameterNumberName":"U-component_of_CURRENTS"},"data":[0,0,0,0,0,0,0,0,0,0,0,0,0,0,0,0,0,0,0,0,0,0,0,0,0,0,0,0,0,0,0,0,0,0,0,0,0,0,0,0,0,0,0,0,0,0,0,0,0,0,0,0,0,0,0,0,0,0,0.1039,0.1039,0,0.1057,0.1057,0.1057,0.105,0.1049,0.1049,0.1049,0.1086,0.1088,0.1089,0,0,0,0,0,0,0,0,0,0,0,0,0,0.0993,0.0994,0.1039,0.1039,0.1039,0.1057,0.1057,0.1057,0.105,0.1049,0.1049,0.1049,0.1086,0.1088,0.1089,0,0,0,0,0,0,0,0,0,0,0,0,0,0.1012,0.0995,0.1039,0.1038,0.1039,0.1057,0.1057,0.1057,0.105,0.1049,0.1049,0.1048,0.1085,0.1087,0.1089,0.1112,0,0,0.1095,0.1096,0,0,0,0,0,0,0,0,0.1011,0.1013,0.1038,0.1038,0.1039,0.1051,0.1055,0.1077,0.105,0.1045,0.1049,0.1048,0.1077,0.108,0.1083,0.1114,0.1116,0.1096,0.1097,0.1098,0.1098,0,0,0,0,0,0,0,0.1009,0.1012,0.1045,0.1039,0.1039,0.1036,0.1038,0.1059,0.1064,0.1045,0.1045,0.1048,0.1077,0.1081,0.1084,0.1116,0.1096,0.1097,0.1099,0.1099,0.1172,0.1173,0,0,0,0,0,0,0.101,0.1011,0.1045,0.1046,0.1024,0.1037,0.1039,0.1047,0.1063,0.1065,0.1049,0.1048,0.1078,0.1082,0.1085,0.1138,0.1098,0.11,0.1101,0.1171,0.1172,0.1173,0,0,0,0,0,0,0.1009,0.1013,0.1044,0.1029,0.1033,0.1038,0.1047,0.1048,0.1057,0.1066,0.1068,0.1059,0.1078,0.1083,0.1105,0.1139,0.11,0.1102,0.117,0.1172,0.1173,0.1229,0,0,0,0,0,0,0.1008,0.1012,0.1025,0.1029,0.1034,0.1069,0.1048,0.1048,0.106,0.106,0.1075,0.1077,0.1078,0.1102,0.1107,0.1141,0.1104,0.1169,0.1171,0.1172,0.1226,0.1232,0.1236,0,0,0,0,0,0.1006,0.1028,0.1025,0.1029,0.1048,0.1071,0.1073,0.1074,0.1061,0.1078,0.1076,0.1077,0.1114,0.1104,0.111,0.1145,0.1169,0.1171,0.1172,0.1224,0.123,0.1236,0,0,0,0,0,0,0.1033,0.1029,0.1026,0.1051,0.1065,0.107,0.1085,0.1081,0.1092,0.1088,0.1088,0.1091,0.1122,0.1123,0.1111,0.1167,0.1142,0.1145,0.1179,0.1186,0.1191,0.1253,0.1105,0,0,0,0,0,0.104,0.1046,0.1052,0.1077,0.1081,0.1083,0.1092,0.1092,0.1099,0.1103,0.1108,0.1116,0.1133,0.1149,0.1159,0.1196,0.1231,0.1221,0.1226,0.123,0.1284,0.1358,0.1376,0.1178,0.1178,0.1178,0,0,0.1057,0.1059,0.1063,0.1081,0.1087,0.1109,0.1087,0.1107,0.1128,0.1107,0.1135,0.1134,0.1144,0.1178,0.1193,0.1186,0.1295,0.1233,0.1237,0.1289,0.1362,0.1382,0.14,0.1179,0.1179,0.1179,0,0,0.1102,0.1096,0.1117,0.1129,0.1141,0.1137,0.1144,0.115,0.1155,0.1175,0.1167,0.1198,0.1205,0.124,0.1252,0.1298,0.1314,0.1283,0.1375,0.1444,0.1463,0.1479,0.1512,0.1532,0.1293,0.1293,0.1294,0,0.1115,0.1152,0.1132,0.1162,0.1179,0.1151,0.1189,0.119,0.1203,0.1241,0.119,0.127,0.1247,0.1352,0.1343,0.1318,0.1345,0.1348,0.1456,0.1473,0.1489,0.152,0.154,0.1296,0.1296,0.1296,0.1295,0,0.1184,0.1209,0.1225,0.1242,0.126,0.1284,0.1282,0.1298,0.1283,0.1308,0.139,0.1379,0.1454,0.1422,0.1385,0.1501,0.1476,0.1447,0.1447,0.1514,0.1539,0.156,0.1301,0.13,0.1299,0.1298,0,0,0.1203,0.1257,0.1258,0.1293,0.1302,0.1327,0.1359,0.1413,0.1479,0.1481,0.1595,0.1594,0.1628,0.1647,0.163,0.1663,0.1741,0.16,0.1602,0.1648,0.1882,0.1723,0.1729,0.1731,0.1736,0.174,0.1841,0,0.1255,0.1325,0.1339,0.1407,0.1442,0.1442,0.1497,0.1545,0.1566,0.1659,0.1695,0.1764,0.1705,0.1733,0.1784,0.1748,0.1805,0.1716,0.1801,0.1804,0.1668,0.1752,0.166,0.1732,0.1861,0.1865,0.1867,0,0.1317,0.1351,0.1434,0.1514,0.1533,0.1579,0.1673,0.1715,0.1829,0.186,0.1975,0.1988,0.2075,0.1978,0.2067,0.2012,0.1979,0.1936,0.1939,0.1803,0.1686,0.1693,0.1765,0.1902,0.1899,0.1897,0.1894,0,0.1353,0.1419,0.1488,0.1511,0.1596,0.1655,0.1695,0.1799,0.1848,0.1991,0.2039,0.2193,0.2215,0.226,0.2136,0.2129,0.2175,0.2164,0.2018,0.2004,0.1954,0.1927,0.2263,0.2263,0.2262,0.2262,0.2262,0,0.1402,0.1438,0.1516,0.1563,0.1649,0.171,0.1823,0.1885,0.2007,0.2055,0.216,0.2192,0.2273,0.2272,0.2228,0.216,0.2269,0.2077,0.2043,0.1959,0.1933,0.2104,0.2084,0.2266,0.2265,0.2264,0.2264,0,0.1371,0.1455,0.1501,0.1612,0.1675,0.1703,0.1825,0.1877,0.2016,0.2076,0.2106,0.221,0.2211,0.2243,0.2254,0.2219,0.2183,0.2119,0.1982,0.1929,0.1968,0.195,0.2089,0.2084,0.2081,0.2078,0.2075,0,0.1336,0.1386,0.1494,0.1543,0.1584,0.1668,0.1725,0.1854,0.1871,0.2014,0.2003,0.208,0.2065,0.2078,0.2053,0.2051,0.2059,0.1908,0.1895,0.201,0.1963,0.195,0.1937,0.1851,0.1847,0.1844,0.1841,0,0.1231,0.1281,0.1321,0.1429,0.1491,0.1545,0.1623,0.1639,0.174,0.1812,0.184,0.1869,0.1915,0.1881,0.1862,0.182,0.1923,0.1835,0.2046,0.1865,0.1782,0.1735,0.1733,0.1811,0.1814,0.1816,0.1817,0.1819,0.1122,0.109,0.12,0.1274,0.136,0.1407,0.141,0.145,0.1486,0.1544,0.1613,0.1657,0.1696,0.1666,0.1602,0.1604,0.1724,0.1682,0.1696,0.1713,0.1624,0.1534,0.15,0.1501,0.1502,0.1503,0.1504,0,0.1018,0.1045,0.1067,0.115,0.1173,0.131,0.1342,0.13,0.1274,0.1353,0.1414,0.1338,0.1358,0.1421,0.1416,0.1399,0.1428,0.133,0.14,0.143,0.1457,0.1357,0.1161,0.116,0.1158,0.1157,0,0,0.0987,0.0974,0.0969,0.0982,0.1067,0.109,0.1106,0.1057,0.1102,0.1073,0.1145,0.1281,0.1384,0.1252,0.1241,0.1225,0.1312,0.1172,0.1453,0.1567,0.1592,0.1668,0.1547,0,0,0,0,0]},{"header":{"parameterUnit":"m.s-1","parameterCategory":2,"la1":30.2991,"la2":30.254,"lo1":-89.0895,"lo2":-89.0444,"dy":0.0017,"dx":0.0017,"nx":28,"ny":28,"refTime":"2025-03-11T09:00:00:Z","depth":"2","parameterNumber":3,"parameterNumberName":"V-component_of_CURRENTS"},"data":[0,0,0,0,0,0,0,0,0,0,0,0,0,0,0,0,0,0,0,0,0,0,0,0,0,0,0,0,0,0,0,0,0,0,0,0,0,0,0,0,0,0,0,0,0,0,0,0,0,0,0,0,0,0,0,0,0,0,-0.0252,-0.0253,0,-0.027,-0.027,-0.0271,-0.0281,-0.0281,-0.0281,-0.0281,-0.0278,-0.0277,-0.0277,0,0,0,0,0,0,0,0,0,0,0,0,0,-0.0242,-0.0242,-0.0252,-0.0253,-0.0253,-0.027,-0.027,-0.0271,-0.0281,-0.0281,-0.0281,-0.0281,-0.0278,-0.0277,-0.0277,0,0,0,0,0,0,0,0,0,0,0,0,0,-0.0252,-0.0242,-0.0252,-0.026,-0.0261,-0.027,-0.027,-0.0271,-0.0281,-0.0281,-0.0281,-0.0281,-0.0278,-0.0277,-0.0277,-0.0274,0,0,-0.0277,-0.0277,0,0,0,0,0,0,0,0,-0.0251,-0.0252,-0.0259,-0.026,-0.0261,-0.0274,-0.0266,-0.0271,-0.0281,-0.0273,-0.0281,-0.0281,-0.0274,-0.0274,-0.0278,-0.0274,-0.0274,-0.0277,-0.0276,-0.0276,-0.0276,0,0,0,0,0,0,0,-0.025,-0.0251,-0.0259,-0.0259,-0.026,-0.0268,-0.0269,-0.0267,-0.0272,-0.0274,-0.0274,-0.0277,-0.0275,-0.0278,-0.0277,-0.0274,-0.0277,-0.0276,-0.0276,-0.0276,-0.027,-0.027,0,0,0,0,0,0,-0.0248,-0.0251,-0.0259,-0.026,-0.0256,-0.0268,-0.027,-0.0269,-0.0273,-0.0274,-0.0277,-0.0277,-0.0278,-0.0278,-0.0277,-0.0264,-0.0276,-0.0276,-0.0276,-0.027,-0.027,-0.027,0,0,0,0,0,0,-0.0248,-0.0248,-0.0258,-0.0256,-0.0258,-0.0268,-0.0268,-0.0269,-0.027,-0.0276,-0.0276,-0.0275,-0.0278,-0.0278,-0.0278,-0.0265,-0.0276,-0.0276,-0.027,-0.027,-0.027,-0.0245,0,0,0,0,0,0,-0.0247,-0.0248,-0.0246,-0.0256,-0.0258,-0.0259,-0.0268,-0.027,-0.0272,-0.0272,-0.0274,-0.0274,-0.0278,-0.0278,-0.0278,-0.0265,-0.0276,-0.027,-0.027,-0.027,-0.0245,-0.0244,-0.0242,0,0,0,0,0,-0.0247,-0.0242,-0.0245,-0.0246,-0.0255,-0.0259,-0.026,-0.0268,-0.0271,-0.0269,-0.0276,-0.0274,-0.0278,-0.0278,-0.0278,-0.0264,-0.027,-0.027,-0.027,-0.0246,-0.0244,-0.0242,0,0,0,0,0,0,-0.0222,-0.0243,-0.0247,-0.0245,-0.025,-0.026,-0.0261,-0.0265,-0.0269,-0.0269,-0.0275,-0.0275,-0.0271,-0.0274,-0.0275,-0.0264,-0.0273,-0.0273,-0.0255,-0.0253,-0.0251,-0.0246,-0.0276,0,0,0,0,0,-0.0219,-0.0231,-0.024,-0.0237,-0.0241,-0.025,-0.0252,-0.0256,-0.0262,-0.0264,-0.0266,-0.0269,-0.027,-0.0267,-0.027,-0.0262,-0.0285,-0.0254,-0.0252,-0.0251,-0.0247,-0.0274,-0.0275,-0.027,-0.027,-0.027,0,0,-0.021,-0.0221,-0.0227,-0.0234,-0.0241,-0.0244,-0.0252,-0.0253,-0.025,-0.0262,-0.0259,-0.0264,-0.0269,-0.0263,-0.026,-0.0262,-0.0267,-0.025,-0.0249,-0.0246,-0.0274,-0.0275,-0.0275,-0.027,-0.027,-0.027,0,0,-0.02,-0.0205,-0.0215,-0.022,-0.0229,-0.0235,-0.0234,-0.0242,-0.024,-0.0241,-0.0248,-0.0248,-0.025,-0.0249,-0.0249,-0.024,-0.026,-0.0237,-0.0219,-0.0245,-0.0245,-0.0246,-0.029,-0.0295,-0.0233,-0.0232,-0.0232,0,-0.0191,-0.0198,-0.0214,-0.022,-0.0219,-0.0231,-0.0227,-0.023,-0.0234,-0.0224,-0.0238,-0.0219,-0.0244,-0.0212,-0.023,-0.0235,-0.026,-0.0224,-0.0243,-0.0244,-0.0245,-0.029,-0.0295,-0.0231,-0.0231,-0.0232,-0.0232,0,-0.0184,-0.0193,-0.0195,-0.0211,-0.0208,-0.0208,-0.0211,-0.0209,-0.0211,-0.0207,-0.0176,-0.019,-0.0162,-0.0186,-0.0219,-0.0218,-0.0239,-0.024,-0.0247,-0.0244,-0.0291,-0.0298,-0.0229,-0.023,-0.023,-0.0231,0,0,-0.0164,-0.019,-0.0191,-0.0192,-0.0201,-0.0195,-0.0191,-0.018,-0.0162,-0.0155,-0.0103,-0.0137,-0.011,-0.011,-0.0116,-0.0171,-0.0238,-0.022,-0.0222,-0.0262,-0.0312,-0.0349,-0.036,-0.0242,-0.0243,-0.0243,-0.0347,0,-0.0156,-0.0172,-0.0176,-0.0171,-0.0178,-0.0176,-0.0154,-0.0142,-0.0143,-0.0098,-0.0076,-0.005,-0.0081,-0.0068,-0.0102,-0.0202,-0.0251,-0.0211,-0.0309,-0.0313,-0.0344,-0.0366,-0.03,-0.0388,-0.0353,-0.0354,-0.0355,0,-0.0146,-0.0161,-0.0162,-0.0149,-0.0143,-0.0124,-0.0093,-0.0075,-0.0029,-0.0017,0.0041,0.0051,0.0041,-0.0004,-0.0115,-0.0086,-0.0195,-0.0291,-0.0296,-0.0341,-0.0361,-0.0382,-0.0401,-0.0366,-0.0365,-0.0364,-0.0363,0,-0.013,-0.0144,-0.0142,-0.0141,-0.0127,-0.0099,-0.0071,-0.0043,-0.0021,0.0042,0.0047,0.0102,0.0089,0.0015,-0.0173,-0.0146,-0.0345,-0.0312,-0.0436,-0.044,-0.0408,-0.0408,-0.0409,-0.0409,-0.0409,-0.0408,-0.0408,0,-0.0125,-0.0141,-0.013,-0.0123,-0.0089,-0.0064,-0.0013,0.0009,0.007,0.0099,0.0118,0.0127,0.0069,-0.0037,-0.0151,-0.0325,-0.0309,-0.0444,-0.0469,-0.04,-0.0398,-0.0392,-0.0388,-0.0412,-0.0411,-0.0411,-0.041,0,-0.0175,-0.0151,-0.0168,-0.0127,-0.0084,-0.0074,0.0009,0.002,0.0076,0.0115,0.0131,0.011,-0.0009,-0.0109,-0.0289,-0.0347,-0.0493,-0.0573,-0.0503,-0.0518,-0.0562,-0.0556,-0.0647,-0.065,-0.0651,-0.0653,-0.0654,0,-0.0225,-0.0226,-0.0184,-0.0147,-0.0132,-0.0081,-0.0041,0.0026,0.0034,0.0082,0.0088,0.0004,-0.0028,-0.0268,-0.0392,-0.054,-0.0588,-0.0637,-0.056,-0.0571,-0.0586,-0.0577,-0.0569,-0.0514,-0.0514,-0.0514,-0.0514,0,-0.0323,-0.0303,-0.0308,-0.0231,-0.0181,-0.0144,-0.0075,-0.0045,0.0024,0.007,0.0094,0.0085,-0.0098,-0.0199,-0.0437,-0.0534,-0.0577,-0.0641,-0.0681,-0.0465,-0.0454,-0.0466,-0.0461,-0.0514,-0.0514,-0.0514,-0.0514,-0.0514,-0.0406,-0.0433,-0.0372,-0.0321,-0.0248,-0.0169,-0.0116,-0.0044,0.0039,0.0177,0.0125,0.018,-0.0021,-0.0214,-0.0415,-0.0585,-0.0583,-0.0629,-0.0625,-0.0622,-0.0589,-0.0582,-0.0661,-0.0662,-0.0663,-0.0663,-0.0664,0,-0.0453,-0.0432,-0.0423,-0.0341,-0.0283,-0.0208,-0.0102,-0.0012,0.0134,0.0237,0.0339,0.0226,0.0083,-0.0123,-0.0347,-0.054,-0.0511,-0.0603,-0.0512,-0.0512,-0.0512,-0.047,-0.0512,-0.0512,-0.0512,-0.0512,0,0,-0.0448,-0.0435,-0.0437,-0.0346,-0.0272,-0.0149,-0.0056,0.0108,0.0251,0.0412,0.0497,0.0496,0.0198,0.0056,-0.021,-0.0335,-0.0368,-0.0359,-0.0462,-0.0322,-0.0318,-0.0515,-0.045,0,0,0,0,0]}],[{"header":{"parameterUnit":"m.s-1","parameterCategory":2,"la1":30.2991,"la2":30.254,"lo1":-89.0895,"lo2":-89.0444,"dy":0.0017,"dx":0.0017,"nx":28,"ny":28,"refTime":"2025-03-11T09:00:00:Z","depth":"4","parameterNumber":2,"parameterNumberName":"U-component_of_CURRENTS"},"data":[0,0,0,0,0,0,0,0,0,0,0,0,0,0,0,0,0,0,0,0,0,0,0,0,0,0,0,0,0,0,0,0,0,0,0,0,0,0,0,0,0,0,0,0,0,0,0,0,0,0,0,0,0,0,0,0,0,0,0.0431,0.0431,0,0.0466,0.0466,0.0466,0.0505,0.0506,0.0507,0.0508,0.0549,0.0549,0.055,0,0,0,0,0,0,0,0,0,0,0,0,0,0.0356,0.0357,0.0431,0.0431,0.0432,0.0466,0.0466,0.0466,0.0505,0.0506,0.0507,0.0508,0.0549,0.0549,0.055,0,0,0,0,0,0,0,0,0,0,0,0,0,0.0386,0.0358,0.043,0.0458,0.0462,0.0466,0.0466,0.0466,0.0504,0.0506,0.0507,0.0508,0.0549,0.0549,0.055,0.0524,0,0,0.0551,0.0551,0,0,0,0,0,0,0,0,0.0384,0.0388,0.0454,0.0457,0.046,0.0486,0.0456,0.0487,0.0504,0.0484,0.0508,0.0509,0.053,0.0532,0.053,0.0526,0.0528,0.0551,0.0551,0.0551,0.0551,0,0,0,0,0,0,0,0.0382,0.0387,0.0441,0.0454,0.0458,0.0456,0.0462,0.0461,0.0496,0.0486,0.049,0.05,0.0532,0.0529,0.0531,0.0529,0.0551,0.0551,0.0551,0.0552,0.0588,0.0589,0,0,0,0,0,0,0.0387,0.0385,0.044,0.0442,0.0429,0.0457,0.0463,0.0473,0.0496,0.0502,0.0498,0.0501,0.0528,0.0531,0.0533,0.06,0.0551,0.0552,0.0552,0.0587,0.0588,0.0589,0,0,0,0,0,0,0.0385,0.0391,0.0438,0.0417,0.0424,0.0457,0.0468,0.0473,0.0501,0.0506,0.0512,0.0525,0.0529,0.0532,0.0565,0.0598,0.0552,0.0552,0.0586,0.0588,0.0589,0.0672,0,0,0,0,0,0,0.0383,0.039,0.0404,0.0418,0.0425,0.0456,0.0467,0.0473,0.0505,0.051,0.053,0.0533,0.0531,0.0564,0.0565,0.0598,0.0552,0.0585,0.0587,0.0588,0.0669,0.0676,0.0683,0,0,0,0,0,0.038,0.0392,0.0404,0.0411,0.0441,0.0457,0.046,0.0485,0.0505,0.0515,0.054,0.0534,0.0573,0.0565,0.0566,0.06,0.0585,0.0587,0.0588,0.0666,0.0675,0.0683,0,0,0,0,0,0,0.0365,0.0398,0.0411,0.0433,0.0452,0.0466,0.0481,0.0499,0.0524,0.0539,0.0545,0.055,0.059,0.0577,0.0568,0.0611,0.0577,0.0579,0.0635,0.0644,0.0651,0.062,0.0553,0,0,0,0,0,0.0367,0.0388,0.0414,0.0431,0.0445,0.0467,0.0481,0.0499,0.0521,0.0535,0.0552,0.0569,0.059,0.0605,0.0611,0.0634,0.0617,0.0654,0.0661,0.0667,0.0641,0.0655,0.0661,0.0595,0.0594,0.0594,0,0,0.0362,0.0387,0.0396,0.043,0.0447,0.0468,0.0479,0.0507,0.0534,0.0534,0.0578,0.0594,0.0601,0.0635,0.065,0.0634,0.0683,0.0669,0.0675,0.0645,0.0657,0.0664,0.067,0.0596,0.0595,0.0595,0,0,0.0357,0.0389,0.0403,0.0424,0.0462,0.0481,0.0497,0.0527,0.0553,0.0589,0.0606,0.0637,0.0663,0.0676,0.0687,0.0728,0.0719,0.0743,0.0759,0.0775,0.078,0.0785,0.0799,0.0804,0.0748,0.0749,0.0749,0,0.0348,0.0374,0.0407,0.0428,0.0452,0.0492,0.0512,0.0542,0.0581,0.0607,0.0613,0.0666,0.0675,0.0721,0.0739,0.0744,0.0752,0.0735,0.0785,0.0789,0.0792,0.0805,0.081,0.0753,0.0752,0.0752,0.0752,0,0.0352,0.0378,0.039,0.0435,0.0466,0.0489,0.0539,0.0581,0.0622,0.0647,0.0703,0.0715,0.0743,0.0764,0.0765,0.0803,0.0803,0.0796,0.0767,0.0804,0.0816,0.0819,0.0759,0.0757,0.0756,0.0755,0,0,0.0304,0.0377,0.0377,0.0405,0.0474,0.0495,0.0562,0.0621,0.0669,0.0706,0.075,0.0788,0.0797,0.0805,0.0821,0.0831,0.0875,0.0826,0.0825,0.0844,0.0919,0.0884,0.0884,0.0892,0.0892,0.0892,0.0929,0,0.0291,0.0325,0.0374,0.0416,0.0442,0.0516,0.0572,0.0639,0.0697,0.075,0.0781,0.0821,0.0817,0.084,0.0852,0.0866,0.0882,0.0865,0.0873,0.0872,0.0841,0.0886,0.0893,0.0931,0.0932,0.0932,0.0932,0,0.0273,0.0302,0.0333,0.042,0.044,0.048,0.0587,0.0644,0.0738,0.0783,0.0831,0.0855,0.0887,0.0869,0.0903,0.09,0.0905,0.0908,0.091,0.0838,0.0842,0.0877,0.0937,0.0937,0.0937,0.0936,0.0936,0,0.0214,0.0277,0.0303,0.0327,0.0427,0.0472,0.054,0.0648,0.071,0.08,0.0844,0.0887,0.0915,0.0922,0.093,0.0928,0.0953,0.0954,0.0927,0.0926,0.0908,0.0902,0.0963,0.0963,0.0963,0.0963,0.0962,0,0.0181,0.0204,0.0277,0.0289,0.0342,0.0435,0.0511,0.0595,0.0705,0.0774,0.0846,0.0886,0.0929,0.0954,0.0946,0.0945,0.0971,0.0923,0.093,0.0947,0.0945,0.0912,0.0906,0.0964,0.0964,0.0963,0.0963,0,0.0121,0.0164,0.0192,0.0278,0.0313,0.0351,0.0489,0.0548,0.0667,0.0758,0.0787,0.0895,0.094,0.097,0.0991,0.0971,0.0965,0.0955,0.0974,0.0983,0.0926,0.0923,0.0936,0.0935,0.0934,0.0934,0.0933,0,0.0104,0.0104,0.016,0.0181,0.0222,0.0299,0.0363,0.0505,0.0578,0.0751,0.0782,0.0875,0.0932,0.0937,0.0966,0.0971,0.0957,0.0956,0.0928,0.0916,0.0922,0.0921,0.0919,0.0932,0.0932,0.0931,0.0931,0,0.0058,0.0062,0.0078,0.0115,0.0164,0.0231,0.0337,0.0387,0.0562,0.0657,0.077,0.0826,0.0885,0.0913,0.0933,0.0924,0.0956,0.0947,0.0949,0.0923,0.0911,0.0917,0.0917,0.0928,0.0929,0.0929,0.0929,0,0.0015,0.0003,0.0017,0.0059,0.0105,0.0172,0.0236,0.0351,0.0445,0.0656,0.0673,0.0784,0.0869,0.0888,0.0891,0.0901,0.0893,0.0865,0.0871,0.0875,0.0838,0.0813,0.0803,0,0,0,0,0,-0.0024,-0.0032,-0.0016,0.0022,0.0065,0.0117,0.0231,0.0308,0.0461,0.0526,0.0619,0.0677,0.0753,0.0792,0.0791,0.085,0.0875,0.0846,0.084,0.0912,0.0916,0.0879,0,0,0,0,0,0,-0.0047,-0.0057,-0.0042,-0.001,0.0025,0.0091,0.0166,0.0274,0.0331,0.0479,0.0511,0.0627,0.0685,0.0735,0.077,0.0786,0.077,0.0912,0.0911,0.091,0.0913,0.0916,0.088,0,0,0,0,0]},{"header":{"parameterUnit":"m.s-1","parameterCategory":2,"la1":30.2991,"la2":30.254,"lo1":-89.0895,"lo2":-89.0444,"dy":0.0017,"dx":0.0017,"nx":28,"ny":28,"refTime":"2025-03-11T09:00:00:Z","depth":"4","parameterNumber":3,"parameterNumberName":"V-component_of_CURRENTS"},"data":[0,0,0,0,0,0,0,0,0,0,0,0,0,0,0,0,0,0,0,0,0,0,0,0,0,0,0,0,0,0,0,0,0,0,0,0,0,0,0,0,0,0,0,0,0,0,0,0,0,0,0,0,0,0,0,0,0,0,0.0004,0.0004,0,0.001,0.001,0.001,-0.0038,-0.0039,-0.004,-0.0041,-0.0137,-0.0138,-0.0139,0,0,0,0,0,0,0,0,0,0,0,0,0,-0.0046,-0.0045,0.0003,0.0004,0.0004,0.001,0.001,0.001,-0.0038,-0.0039,-0.0041,-0.0042,-0.0136,-0.0138,-0.014,0,0,0,0,0,0,0,0,0,0,0,0,0,-0.0032,-0.0045,0.0003,-0.0018,-0.002,0.001,0.001,0.001,-0.0037,-0.0039,-0.0041,-0.0043,-0.0136,-0.0138,-0.014,-0.0117,0,0,-0.0146,-0.0147,0,0,0,0,0,0,0,0,-0.0033,-0.003,-0.0015,-0.0016,-0.0018,-0.0015,-0.0042,-0.0037,-0.0037,-0.0032,-0.0041,-0.0043,-0.0103,-0.0108,-0.0104,-0.0122,-0.0126,-0.0147,-0.0148,-0.0149,-0.0149,0,0,0,0,0,0,0,-0.0034,-0.0031,0.0004,-0.0014,-0.0016,-0.0026,-0.0026,-0.0041,-0.0061,-0.0033,-0.0036,-0.0032,-0.0105,-0.0101,-0.0107,-0.0127,-0.0147,-0.0148,-0.015,-0.0151,-0.0217,-0.0217,0,0,0,0,0,0,-0.0029,-0.0031,0.0004,0.0005,-0.0028,-0.0024,-0.0024,-0.0016,-0.0059,-0.0066,-0.003,-0.0034,-0.0097,-0.0104,-0.011,-0.0159,-0.0149,-0.0151,-0.0152,-0.0216,-0.0217,-0.0217,0,0,0,0,0,0,-0.003,-0.0026,0.0004,-0.0013,-0.0009,-0.0021,-0.0011,-0.0015,-0.0036,-0.0055,-0.0065,-0.0052,-0.0099,-0.0107,-0.0143,-0.016,-0.0152,-0.0154,-0.0216,-0.0216,-0.0217,-0.021,0,0,0,0,0,0,-0.0031,-0.0026,-0.0029,-0.0012,-0.0008,0.0012,-0.0009,-0.0013,-0.0029,-0.0034,-0.0076,-0.0085,-0.0101,-0.0139,-0.0145,-0.0163,-0.0155,-0.0215,-0.0216,-0.0217,-0.0209,-0.021,-0.0211,0,0,0,0,0,-0.0033,-0.0023,-0.0029,-0.0025,-0.0008,0.0013,0.0014,-0.0002,-0.0028,-0.0031,-0.0066,-0.0085,-0.0149,-0.0141,-0.0147,-0.0167,-0.0215,-0.0216,-0.0217,-0.0209,-0.021,-0.0211,0,0,0,0,0,0,-0.0047,-0.0026,-0.0033,-0.0018,-0.0009,0.0005,0.0,-0.0011,-0.0037,-0.0057,-0.0085,-0.0096,-0.0136,-0.0148,-0.0139,-0.0189,-0.0187,-0.019,-0.0179,-0.018,-0.0181,-0.0193,-0.0157,0,0,0,0,0,-0.0048,-0.004,-0.002,-0.0014,-0.0009,-0.001,-0.0009,-0.0017,-0.003,-0.0044,-0.0071,-0.0107,-0.0137,-0.0158,-0.0181,-0.0202,-0.0223,-0.0221,-0.0222,-0.0223,-0.0237,-0.0277,-0.0282,-0.0221,-0.0221,-0.0221,0,0,-0.0054,-0.0041,-0.0039,-0.0017,-0.0015,0.0003,-0.0015,-0.0015,-0.0018,-0.005,-0.0079,-0.011,-0.0144,-0.0172,-0.0191,-0.019,-0.0248,-0.0224,-0.0224,-0.0239,-0.0278,-0.0284,-0.029,-0.0221,-0.0221,-0.0221,0,0,-0.0048,-0.0047,-0.0036,-0.002,-0.0011,-0.0006,-0.001,-0.0005,-0.0028,-0.004,-0.008,-0.0122,-0.015,-0.0185,-0.0205,-0.0222,-0.025,-0.0234,-0.0249,-0.0287,-0.0292,-0.0297,-0.0316,-0.0323,-0.0234,-0.0234,-0.0234,0,-0.0066,-0.004,-0.0031,-0.0007,-0.0007,-0.0011,-0.0003,-0.0005,-0.0019,-0.0055,-0.0051,-0.0133,-0.0154,-0.0217,-0.0223,-0.0225,-0.0248,-0.0241,-0.0288,-0.0294,-0.0299,-0.0317,-0.0325,-0.0234,-0.0234,-0.0234,-0.0234,0,-0.0038,-0.0023,-0.0015,0.0009,0.0014,0.002,0.0023,0.0002,-0.0026,-0.0041,-0.011,-0.0135,-0.0197,-0.0202,-0.0216,-0.0278,-0.0282,-0.0283,-0.0285,-0.0305,-0.0322,-0.0331,-0.0234,-0.0234,-0.0234,-0.0234,0,0,-0.0082,-0.0014,-0.0018,-0.0005,0.0014,0.0022,0.0004,-0.0026,-0.0065,-0.0081,-0.0141,-0.0183,-0.0223,-0.025,-0.0281,-0.0306,-0.0348,-0.0314,-0.0316,-0.0331,-0.0429,-0.0366,-0.0369,-0.0364,-0.0366,-0.0367,-0.0419,0,-0.0083,-0.0032,-0.0012,0.0008,0.003,0.0012,-0.0004,-0.0034,-0.0072,-0.0121,-0.0174,-0.023,-0.0233,-0.0277,-0.0304,-0.0347,-0.0374,-0.0334,-0.0409,-0.0412,-0.0352,-0.0377,-0.0373,-0.0426,-0.0428,-0.0429,-0.043,0,-0.0079,-0.0044,-0.0021,0.0001,-0.0001,-0.0003,-0.0068,-0.0081,-0.0149,-0.0183,-0.0253,-0.0289,-0.0357,-0.034,-0.0421,-0.0401,-0.0423,-0.0435,-0.0437,-0.0392,-0.0365,-0.0407,-0.0445,-0.0444,-0.0443,-0.0442,-0.0441,0,-0.0112,-0.0064,-0.0056,-0.004,-0.0011,-0.005,-0.0069,-0.0126,-0.0141,-0.0244,-0.0254,-0.0356,-0.0382,-0.0446,-0.0453,-0.0463,-0.0507,-0.0525,-0.0487,-0.0482,-0.0525,-0.052,-0.0581,-0.0581,-0.058,-0.058,-0.058,0,-0.0118,-0.0106,-0.0074,-0.0058,-0.0069,-0.0076,-0.0118,-0.0155,-0.0204,-0.0198,-0.0297,-0.029,-0.0407,-0.0429,-0.0473,-0.0486,-0.0527,-0.05,-0.0498,-0.0518,-0.0511,-0.053,-0.0524,-0.0582,-0.0582,-0.0581,-0.0581,0,-0.0129,-0.0109,-0.0078,-0.0068,-0.0071,-0.0087,-0.0093,-0.0105,-0.0172,-0.0168,-0.0195,-0.0252,-0.03,-0.0376,-0.0457,-0.0477,-0.0521,-0.0508,-0.0503,-0.0498,-0.0477,-0.047,-0.0528,-0.0526,-0.0525,-0.0523,-0.0522,0,-0.0118,-0.0107,-0.0073,-0.0053,-0.005,-0.0063,-0.0054,-0.0094,-0.0082,-0.0102,-0.0077,-0.0142,-0.0177,-0.0249,-0.0345,-0.046,-0.0453,-0.0489,-0.0519,-0.0483,-0.0476,-0.047,-0.0465,-0.052,-0.052,-0.052,-0.0519,0,-0.0095,-0.0099,-0.0067,-0.0025,-0.001,0.0032,0.0037,0.0055,0.0034,0.0007,0.0021,-0.0048,-0.0086,-0.0203,-0.0281,-0.035,-0.0492,-0.0476,-0.048,-0.051,-0.0475,-0.0468,-0.0464,-0.0514,-0.0515,-0.0516,-0.0516,0,-0.0089,-0.0058,-0.0035,0.0004,0.0043,0.0092,0.0102,0.0128,0.013,0.0107,0.0136,0.0047,-0.0014,-0.0137,-0.0191,-0.0282,-0.0326,-0.0362,-0.0374,-0.038,-0.0318,-0.0252,-0.023,0,0,0,0,0,-0.0085,-0.0051,-0.0003,0.0037,0.0082,0.0094,0.0157,0.0167,0.0174,0.02,0.0153,0.0116,-0.0006,-0.0058,-0.0143,-0.0184,-0.0347,-0.0284,-0.0396,-0.0488,-0.0493,-0.044,0,0,0,0,0,0,-0.0085,-0.0044,-0.0003,0.0049,0.0074,0.0123,0.0163,0.0182,0.0189,0.0184,0.012,0.0087,-0.0037,0.0019,-0.0157,-0.0183,-0.0261,-0.0348,-0.0349,-0.0485,-0.049,-0.0494,-0.0441,0,0,0,0,0]}]]